SL-16 DEB, 39708

Orbit data source: Space-Track

SL-16 DEB, 39708 is space debris in LEO originally from a launch on Fri, 25 Dec 1992 UTC launched from the Tyuratam Missile And Space Complex (TTMTR). Debris objects in space refer to the collection of defunct objects orbiting the Earth. Examples of debris include non-operational satellites, rocket bodies, and fragments generated from explosions, collisions, or faulty payload assembly.

Loading next visibility...
Identifier
39708, 1992-093JY
Orbit
LEO
Country
Flag of CISCIS
Related business
Manufacturer
Unknown
Mission
Spacecraft
Bus & Motor
Unknown
Mass
Unknown
Launch date (UTC)
1992-12-25 (33 years ago)
Launch vehicle
Unknown
Launch site
Tyuratam Missile And Space Complex (TTMTR)
Object type
Payload
Rocket body
Debris
Shape & HBR
Unknown shape, 0.1 m
Radar Cross Section
Small (<0.1 m²)

Expand to show TLE details & history
Last TLE update: 5 days ago

TLE from 5 days ago
0 SL-16 DEB
1 39708U 92093JY  25344.75077488  .00025597  00000-0  17829-2 0  9991
2 39708  71.2778 337.4813 0050460 306.9087 226.0737 15.04320399627972
Epoch: 2025-12-10T18:01Z
TLE epoch observation values (Epoch: 2025-12-10T18:01:06.949Z)
Latitude
6.97046°
Longitude
165.1239°
Altitude
579.836 km
Speed
7.558 km/s
True Right ascension
10h 20m 28s
True Declination
6° 55' 41"
Sunlit
Object was in daylight at epoch
Visualization orbit readout
Latitude
Unknown
Longitude
Unknown
Altitude
Unknown
Speed
Unknown
Apparent Right ascension
Unknown
Apparent Declination
Unknown
Sunlit
N/A
Visualization observer readout
Local Sidereal Time
17:23:10
Azimuth
Unknown
Elevation
Unknown
Doppler factor
Unknown
Orbital elements
Apogee altitude
586.369 km
Perigee altitude
516.436 km
Semi-major axis
6,929.539 km
Eccentricity
0.00505
Inclination
71.2778°
RAAN
337.4813°
Arg. of periapsis
306.9087°
True anomaly
225.65906°
Mean anomaly
226.0737°
Eccentric anomaly
225.8662°
Mean motion
3.76259 °/min
Orbital period
95.68 mins
BSTAR
0.0017829
Loading maneuver chart data...
Computing Atmospheric mass density...
Loading historical data...
Loading historical data...
Loading historical data...
Loading historical data...
Loading historical data...
Loading historical data...
Loading historical data...

Documentation

Showing up to 5 results
|